Regional Weather Roundup
Issued by NWS

Home | Current Version | Previous Version | Text Only | Print | Product List | Glossary On
Versions: 1 2 3 4 5 6 7 8 9 10 11 12 13 14 15 16 17 18 19 20 21 22 23 24 25 26 27 28 29 30 31 32 33 34 35 36 37 38 39 40 41 42 43 44 45 46 47 48 49 50
000
ASUS45 KABQ 120010
RWRNM
NEW MEXICO REGIONAL WEATHER ROUNDUP
NATIONAL WEATHER SERVICE ALBUQUERQUE NM
500 PM MST THU FEB 11 2016

NOTE: "FAIR" MEANS FEW OR NO CLOUDS BELOW 12,000 FEET AGL WITH NO
       SIGNIFICANT WEATHER OR OBSTRUCTIONS TO VISION.

      THIS PRODUCT IS RELEASED AS TWO VERSIONS.  ONE VERSION NEAR
      THE TOP OF THE HOUR CONTAINING PRELIMINARY DATA FROM ALBUQUERQUE
      AND OTHER STATIONS.  A FINAL VERSION WITH ADDITIONAL DATA IS
      ISSUED ABOUT 10 MINUTES AFTER THE HOUR.

NMZ501-503-504-510>518-120100-
NORTHWEST PLATEAU/NORTHCENTRAL MOUNTAINS

CITY           SKY/WX    TMP DP  RH WIND       PRES   REMARKS
FARMINGTON     CLOUDY    53  22  29 W14       30.31S
6HR MIN TEMP:  40; 6HR MAX TEMP:  55;

LOS ALAMOS     CLEAR     56  16  21 CALM      30.33R
SANTA FE       CLEAR     58  13  17 SW6       30.28R
6HR MIN TEMP:  49; 6HR MAX TEMP:  61;

TAOS           CLEAR     50  16  25 N9        30.33R
ANGEL FIRE     FAIR      43  16  34 W12       30.35R

$$
NMZ402-403-502-505>509-120100-
WESTCENTRAL MOUNTAINS/SOUTHWEST MOUNTAINS

CITY           SKY/WX    TMP DP  RH WIND       PRES   REMARKS
GALLUP         CLEAR     62  14  15 CALM      30.34S
6HR MIN TEMP:  46; 6HR MAX TEMP:  63;

GRANTS         CLEAR     60   5  11 N7        30.34
SILVER CITY      N/A     70   1   7 NW12      30.27R

$$
NMZ407-409-411-412-120100-
SOUTHERN DESERTS

CITY           SKY/WX    TMP DP  RH WIND       PRES   REMARKS
LORDSBURG      FAIR      72  16  12 W7        30.22R
DEMING         CLEAR     73  11   9 S6        30.22R
6HR MIN TEMP:  63; 6HR MAX TEMP:  74;

LAS CRUCES     CLEAR     72   9   9 CALM      30.23S
HOLLOMAN AFB   CLEAR     71   7   8 W8        30.19R
ALAMOGORDO     CLEAR     72   7   8 NW8       30.20S
T OR C         CLEAR     70   9   9 SE3       30.23R
6HR MIN TEMP:  59; 6HR MAX TEMP:  70;


$$
NMZ519>523-120100-
CENTRAL VALLEYS/CENTRAL HIGHLANDS

CITY           SKY/WX    TMP DP  RH WIND       PRES   REMARKS
ALBUQUERQUE    PTCLDY    65  13  13 NW9       30.26R
6HR MIN TEMP:  54; 6HR MAX TEMP:  67;

DOUBLE EAGLE   PTCLDY    63  10  13 NW15      30.28S
MORIARTY ARPT  FAIR      61  10  13 W9        30.28R
6HR MIN TEMP:  54; 6HR MAX TEMP:  64;

CLINES CORNERS CLEAR     54  16  22 W16       30.27R
6HR MIN TEMP:  48; 6HR MAX TEMP:  59;

BELEN          FAIR      65  13  13 NE5       30.26R
6HR MIN TEMP:  53; 6HR MAX TEMP:  67;

SOCORRO        FAIR      66  12  12 N7        30.24S
6HR MIN TEMP:  54; 6HR MAX TEMP:  69;


$$
NMZ524>526-539-540-120100-
SOUTHCENTRAL MOUNTAINS

CITY           SKY/WX    TMP DP  RH WIND       PRES   REMARKS
RUIDOSO        CLEAR     59   1  10 W12       30.33R

$$
NMZ527>531-120100-
NORTHEAST HIGHLANDS/NORTHEAST PLAINS

CITY           SKY/WX    TMP DP  RH WIND       PRES   REMARKS
LAS VEGAS      CLEAR     60   8  12 N15       30.23R
6HR MIN TEMP:  55; 6HR MAX TEMP:  65;

RATON          CLEAR     63   6  10 NE5       30.20R
6HR MIN TEMP:  53; 6HR MAX TEMP:  66;

CLAYTON        CLOUDY    63  14  15 S13       30.14R
6HR MIN TEMP:  62; 6HR MAX TEMP:  70;


$$
NMZ532>537-120100-
EASTCENTRAL PLAINS

CITY           SKY/WX    TMP DP  RH WIND       PRES   REMARKS
TUCUMCARI      CLEAR     68  13  12 SE6       30.13S
6HR MIN TEMP:  58; 6HR MAX TEMP:  71;

CANNON AFB     CLEAR     66  17  15 S5        30.18R
6HR MIN TEMP:  59; 6HR MAX TEMP:  70;

CLOVIS AIRPORT CLEAR     63  21  20 S6        30.19R

$$
NMZ028-029-538-120100-
SOUTHEAST PLAINS

CITY           SKY/WX    TMP DP  RH WIND       PRES   REMARKS
ROSWELL        CLEAR     70  15  12 S3        30.16R
6HR MIN TEMP:  64; 6HR MAX TEMP:  73;

ARTESIA        CLEAR     70  19  14 CALM      30.17R
CARLSBAD       CLEAR     70  21  15 N6        30.14S
6HR MIN TEMP:  61; 6HR MAX TEMP:  73;

HOBBS          CLEAR     68  21  17 N6        30.18R


$$



USA.gov is the U.S. government's official web portal to all federal, state and local government web resources and services.